Miscellaneous Local Product
Issued by NWS Hastings, NE

Home | Current Version | Previous Version | Text Only | Print | Product List | Glossary On
Versions: 1 2 3 4 5 6 7 8 9 10 11 12 13 14 15 16 17 18 19 20 21 22 23 24 25 26 27 28 29 30 31 32 33 34 35 36 37 38 39 40 41 42 43 44 45 46 47 48 49 50
000
AXUS43 KGID 240602
MISGRI

GID CWA HOURLY WEATHER ROUNDUP
NATIONAL WEATHER SERVICE HASTINGS NE
100 AM CDT FRI MAR 24 2017

NOTE: "FAIR" INDICATES FEW OR NO CLOUDS BELOW 12,000 FEET WITH NO
SIGNIFICANT WEATHER AND/OR OBSTRUCTIONS TO VISIBILITY.

...SOUTH CENTRAL NEBRASKA...

CITY           SKY/WX    TMP DP  RH WIND       PRES   REMARKS
GRAND ISLAND   RAIN      58  54  86 W14       29.73R
HASTINGS       CLOUDY    62  53  72 S9        29.69R
KEARNEY        CLOUDY    57  50  77 N17G23    29.71F
ORD            LGT RAIN  54  52  93 N9        29.72F FOG
YORK           CLOUDY    61  55  82 S8        29.68F
AURORA         LGT RAIN  59  55  85 W8        29.68S
LEXINGTON      CLOUDY    55  51  87 NE25G33   29.67F
HOLDREGE       CLOUDY    60  50  70 S20G28    29.65R
HEBRON         LGT RAIN  68  48  48 S10G16    29.69R

...NEBRASKA PANHANDLE...

CITY           SKY/WX    TMP DP  RH WIND       PRES   REMARKS
CHADRON        CLOUDY    43  38  82 N21       29.90R
ALLIANCE       CLOUDY    42  40  92 N25G31    29.84R
SCOTTSBLUFF    CLOUDY    43  39  86 N20G28    29.85F
SIDNEY         CLOUDY    45  41  86 NE25G31   29.76F

...WESTERN AND NORTH CENTRAL NEBRASKA...

CITY           SKY/WX    TMP DP  RH WIND       PRES   REMARKS
VALENTINE      LGT RAIN  46  38  73 N14       29.84R
AINSWORTH      RAIN      48  48 100 N8        29.82R
ONEILL         RAIN      51  51  99 N9        29.80R
BROKEN BOW     LGT RAIN  53  52  96 NE20      29.71F
IMPERIAL       CLOUDY    53  43  68 NE31G43   29.71R THUNDER
NORTH PLATTE   CLOUDY    54  48  80 NE24G38   29.68R
MCCOOK         CLOUDY    60  50  69 SE7       29.70R

...EASTERN NEBRASKA...

CITY           SKY/WX    TMP DP  RH WIND       PRES   REMARKS
NORFOLK        RAIN      55  52  89 N6        29.72R FOG
SO SIOUX CITY  LGT RAIN  51  47  86 N12       29.75R
TEKAMAH        LGT RAIN  63  50  62 S9        29.69R
COLUMBUS       CLOUDY    57  54  88 N14       29.72R
ALBION         LGT RAIN  56  53  87 NE10      29.73R
OMAHA EPPLEY   CLOUDY    71  49  45 S22G30    29.67R
OFFUTT AFB     CLOUDY    70  49  48 S17G26    29.67R
MILLARD        CLOUDY    73  53  49 S12G22    29.69R
LINCOLN        CLOUDY    69  50  50 S15       29.69R
NEBRASKA CITY  CLOUDY    67  43  41 S16G26    29.71F
BEATRICE       CLOUDY    70  51  51 S15G23    29.69S
FALLS CITY     MOCLDY    67  48  50 S12       29.74S

...NORTHERN KANSAS...

CITY           SKY/WX    TMP DP  RH WIND       PRES   REMARKS
GOODLAND       CLOUDY    56  49  77 SE23G29   29.57S
HILL CITY      RAIN      59  55  87 SW15G24   29.73R FOG
NORTON         LGT RAIN  55  48  76 SE10      29.65R
PHILLIPSBURG   LGT RAIN  57  55  94 N3        29.67F
HAYS             N/A     61  49  64 NW5       29.66R
RUSSELL        CLOUDY    70  45  40 S26G36    29.65F
CONCORDIA      CLOUDY    71  47  42 S18G32    29.70R
SALINA         CLOUDY    72  48  42 S16G23    29.71R
TOPEKA         MOCLDY    70  51  51 VRB7G17   29.75R



USA.gov is the U.S. government's official web portal to all federal, state and local government web resources and services.